Volver al catálogo

COSMOS 397 DEB

ActivoLEO
NORAD 5010·DEBRIS·🇷🇺 Russia

Lanzado Feb 25, 1971 desde Baikonur Cosmodrome

Loading…

Próximos Pases

TLE

Source: Space-Track
1  5010U 71015D   26224.06519517  .00000827  00000-0  24776-3 0  9996
2  5010  65.8350 196.8100 0618122 238.6178 115.3010 13.72916867656531

Sigue COSMOS 397 DEB en tiempo real con AllMySat

Download on the App Store